x

8773037 - Seadrift, Tx (sdrt2) Weather Station

3:54pm - Tue 16th Oct 2018 All times are CDT. -5 hours from GMT.

  • Wind
    10mph, 16mph gusts
  • Sea Temp 68°f
  • Air Temp 57°f
  • Sea Pressure 1018.6mb
  • 8773037 - Seadrift, Tx
  • 8773037 - Seadrift, Tx

More Historic Weather Station data

Upgrade to MSW Pro to gain access to the past 30 days of data for over 8000 Wavebouys and Weather Stations around the globe.

Join

Comparision Forecast

View Surf forecast
   
Tue 10/16 3:54pm 10 16 mph 1018.6mb 68f 57f
3:48pm 11 17 mph 1018.6mb - -
3:42pm 13 18 mph 1018.6mb 68f 57f
3:36pm 13 17 mph 1018.5mb 68f 57f
3:30pm 13 18 mph 1018.5mb 68f 56f
3:24pm 11 17 mph 1018.2mb 68f 56f
3:18pm 13 21 mph 1018.3mb 68f 56f
3:12pm 11 20 mph 1018.3mb 68f 57f
3:06pm 13 21 mph 1018.4mb 68f 56f
3:00pm 13 21 mph 1018.4mb 68f 56f
2:54pm 16 20 mph 1018.4mb 68f 56f
2:48pm 11 20 mph - - -
2:42pm 16 21 mph 1018.4mb 68f 56f
2:36pm 14 20 mph 1018.5mb 68f 56f
2:30pm 13 17 mph 1018.5mb 68f 56f
2:24pm 11 18 mph 1018.6mb 68f 56f
2:18pm 11 17 mph 1018.7mb 67f 56f
2:12pm 11 16 mph 1018.8mb 68f 56f
2:06pm 11 17 mph 1019mb 68f 56f
2:00pm 14 20 mph 1018.9mb 67f 56f
1:54pm 14 17 mph 1019mb 67f 56f
1:48pm 10 17 mph 1019.3mb 67f 56f
1:42pm 11 20 mph 1019.5mb 67f 56f
1:36pm 13 17 mph 1019.5mb 67f 55f
1:30pm 13 16 mph 1019.5mb 67f 56f
1:24pm 10 17 mph 1019.6mb 67f 56f
1:18pm 14 18 mph 1019.6mb 67f 55f
1:12pm 13 17 mph 1019.7mb 67f 55f
1:06pm 14 18 mph 1019.7mb 67f 55f
1:00pm 11 16 mph 1019.8mb 67f 56f
12:54pm 11 18 mph 1019.7mb 67f 56f
12:48pm 11 17 mph 1019.8mb 67f -
12:42pm 13 18 mph 1019.9mb 67f 55f
12:36pm 11 17 mph 1020mb 67f 55f
12:30pm 14 20 mph 1019.9mb 67f 55f
12:24pm 13 18 mph 1019.8mb 67f 55f
12:18pm 9 15 mph 1019.8mb - -
12:12pm 13 16 mph 1019.9mb 67f 55f
12:06pm 10 20 mph 1020mb 67f 54f
12:00pm 13 20 mph 1020mb 67f 54f
11:18am 11 15 mph 1020.4mb 67f 53f
11:12am 10 20 mph 1020.4mb 67f 52f
11:06am 14 18 mph 1020.4mb 67f 52f
11:00am 11 18 mph 1020.5mb 67f 52f
10:54am 11 20 mph 1020.5mb 67f 52f
10:48am 10 17 mph 1020.5mb 67f 52f
10:42am 15 20 mph 1020.5mb 66f 52f
10:36am 10 14 mph 1020.6mb 66f 52f
10:30am 11 20 mph 1020.6mb 66f 52f
10:24am 10 20 mph 1020.5mb 66f 52f
10:18am 15 20 mph 1020.4mb 66f -
10:12am 10 16 mph 1020.4mb 66f 52f
10:06am 15 21 mph 1020.3mb 66f 52f
10:00am 14 18 mph 1020.2mb 66f 52f
9:54am 11 17 mph 1020.1mb 66f 52f
9:48am 11 17 mph 1020.1mb 66f 52f
9:42am 10 20 mph 1020mb 66f 51f
9:36am 13 20 mph 1019.9mb 66f 51f
9:30am 13 20 mph 1019.8mb 66f 51f
9:24am 13 18 mph 1019.8mb 67f 51f
9:18am 14 20 mph 1019.8mb 67f 51f
9:12am 11 18 mph 1019.7mb 67f 51f
9:06am 13 20 mph 1019.7mb 67f 51f
9:00am 13 20 mph 1019.6mb 67f 51f
8:54am 13 17 mph 1019.6mb 67f 51f
8:48am 13 17 mph 1019.4mb 67f -
8:42am 10 18 mph 1019.4mb 67f 51f
8:36am 10 16 mph 1019.4mb 67f 51f
8:30am 11 16 mph 1019.2mb 67f 51f
8:24am 11 21 mph 1019.2mb 67f 51f
8:18am 14 20 mph 1019.1mb 67f 50f
8:12am 15 22 mph 1019.1mb 67f 50f
8:06am 14 20 mph 1019mb 67f 50f
8:00am 13 20 mph 1018.9mb 67f 50f
7:48am 15 20 mph 1019.1mb 67f 50f
7:42am 11 18 mph 1019.1mb 67f 50f
7:36am 11 18 mph 1019mb 67f 50f
7:30am 13 22 mph 1018.9mb 67f 51f
7:24am 15 21 mph 1019mb 67f 51f
7:18am 14 20 mph 1019mb 67f 50f
7:12am 14 22 mph 1018.9mb 67f 50f
7:06am 11 16 mph 1018.8mb 67f 51f
7:00am 10 18 mph 1018.7mb 67f 51f
6:54am 11 23 mph 1018.7mb 67f 51f
6:48am 14 22 mph 1018.7mb 68f 51f
6:42am 14 23 mph 1018.6mb 68f 51f
6:36am 17 23 mph 1018.6mb 68f 51f
6:30am 14 20 mph 1018.7mb 68f 51f
6:24am 14 21 mph 1018.8mb 68f 50f
6:18am 13 17 mph 1018.9mb 68f 51f
6:12am 14 20 mph 1019mb 69f 51f
6:06am 13 18 mph 1018.8mb 69f 51f
6:00am 15 20 mph 1018.6mb 69f 51f
5:54am 15 22 mph 1018.6mb 68f 51f
5:48am 15 21 mph 1018.5mb 68f -
5:42am 11 20 mph 1018.4mb 69f 51f
5:36am 14 18 mph 1018.5mb 69f 51f
5:30am 14 18 mph 1018.4mb 69f 51f
5:24am 13 18 mph 1018.4mb 69f 51f
5:18am 13 18 mph 1018.4mb - -
5:12am 10 18 mph 1018.3mb 69f 51f
5:06am 13 16 mph 1018.2mb 69f 51f
5:00am 13 16 mph 1018.2mb 70f 51f
4:54am 11 21 mph 1018mb 70f 51f
4:48am 15 21 mph 1017.8mb 70f 51f
4:42am 15 21 mph 1018.1mb 70f 51f
4:36am 15 20 mph 1018.1mb 70f 51f
4:30am 9 14 mph 1018.4mb 69f 51f
4:24am 13 16 mph 1018.4mb 70f 51f
4:18am 13 21 mph 1018.3mb 70f 51f
4:12am 10 18 mph 1018.3mb 70f 52f
4:06am 10 15 mph 1018.4mb 70f 52f
4:00am 10 15 mph 1018.4mb 70f 51f
3:54am 14 17 mph 1018.4mb 70f 51f
3:48am 14 18 mph 1018.6mb 70f -
3:42am 10 15 mph 1018.9mb 70f 52f
3:36am 13 16 mph 1018.9mb 70f 51f
3:30am 8 15 mph 1018.9mb 70f 52f
3:24am 14 16 mph 1018.8mb 70f 52f
3:18am 10 14 mph 1019mb 70f 52f
3:12am 10 13 mph 1019.1mb 70f 52f
3:06am 9 16 mph 1018.8mb 70f 52f
3:00am 10 14 mph 1019mb 70f 52f
2:18am 11 16 mph 1019.2mb 70f -
2:12am 11 16 mph 1019.1mb 70f 51f
2:06am 9 15 mph 1019.2mb 70f 52f
2:00am 10 13 mph 1019.2mb 70f 51f
1:54am 10 13 mph 1019.1mb 70f 52f
1:48am 10 16 mph 1019mb 70f 52f
1:42am 13 17 mph 1019.2mb 70f 52f
1:36am 11 17 mph 1019.1mb 70f 52f
1:30am 10 15 mph 1019.1mb 70f 52f
1:24am 11 15 mph 1019.2mb 70f 52f
1:18am 10 15 mph 1019.1mb 70f 52f
1:12am 10 13 mph 1019.2mb 71f 52f
1:06am 8 11 mph 1019.2mb 71f 52f
1:00am 10 15 mph 1019mb 71f 52f
12:54am 8 13 mph 1019mb 71f 52f
12:48am 9 14 mph 1019.1mb 71f 52f
12:42am 10 16 mph 1019.1mb 71f 52f
12:36am 10 14 mph 1019.2mb 71f 52f
12:30am 10 14 mph 1019.1mb 71f 52f
12:24am 11 17 mph 1019mb 71f 52f
12:18am 10 18 mph 1018.9mb 71f 52f
12:12am 11 18 mph 1018.9mb 71f 52f
12:06am 9 16 mph 1018.8mb 71f 52f
12:00am 11 17 mph 1018.8mb 71f 52f
Mon 10/15 11:54pm 10 14 mph 1018.9mb 71f 52f
11:48pm 9 15 mph 1018.9mb 71f 51f
11:42pm 9 16 mph 1018.9mb 71f 52f
11:36pm 11 16 mph 1018.7mb 71f 51f
11:30pm 10 16 mph 1018.7mb 71f 51f
11:24pm 9 15 mph 1018.7mb 71f 52f
11:18pm 9 16 mph 1018.6mb 71f 51f
11:12pm 9 14 mph 1018.7mb 72f 51f
11:06pm 11 15 mph 1018.9mb 72f 51f
11:00pm 9 15 mph 1019mb 72f 51f
10:54pm 9 15 mph 1019.1mb 72f 51f
10:48pm 9 14 mph 1019.1mb 71f 52f
10:42pm 10 18 mph 1019mb 71f 52f
10:36pm 11 17 mph 1019mb 72f 52f
10:30pm 9 20 mph 1018.9mb 71f 52f
10:24pm 14 21 mph 1018.8mb 71f 52f
10:18pm 13 20 mph 1018.9mb 71f 52f
10:12pm 11 18 mph 1018.9mb 72f 52f
10:06pm 10 17 mph 1018.9mb 71f 53f
10:00pm 13 18 mph 1018.9mb 71f 53f
9:54pm 13 20 mph 1018.8mb 71f 53f
9:48pm 10 17 mph - - -
9:42pm 13 22 mph 1018.3mb 71f 52f
9:36pm 15 22 mph 1018.4mb 71f 52f
9:30pm 14 18 mph 1018.2mb 72f 52f
9:24pm 15 21 mph 1017.9mb 72f 52f
9:18pm 14 22 mph 1018mb 72f 52f
9:12pm 13 21 mph 1018.2mb 72f 52f
9:06pm 15 21 mph 1018.2mb 72f 52f
9:00pm 16 22 mph 1018.2mb 72f 52f
8:42pm 17 24 mph 1018.4mb 73f 53f
8:36pm 14 22 mph 1018.4mb 73f 53f
8:30pm 15 22 mph 1018.2mb 73f 53f
8:24pm 16 21 mph 1018mb 72f 53f
8:18pm 15 22 mph 1017.8mb 72f 52f
8:12pm 15 21 mph 1017.9mb 72f 52f
8:06pm 14 22 mph 1017.9mb 72f 52f
8:00pm 16 23 mph 1017.6mb 72f 52f
6:42pm 17 29 mph 1016.2mb 73f 53f
6:36pm 20 28 mph 1016.8mb 73f 52f
6:30pm 14 25 mph 1017mb 73f 53f
6:24pm 15 24 mph 1016.8mb 73f 53f
6:18pm 17 25 mph 1016.6mb 73f 53f
6:12pm 17 25 mph 1016.7mb 73f 53f
6:06pm 17 26 mph 1016.7mb 73f 53f
6:00pm 17 25 mph 1016.7mb 73f 53f
5:54pm 14 28 mph 1016.7mb 73f 53f
5:48pm 15 26 mph 1016.6mb - -
5:42pm 17 26 mph 1016.8mb 73f -
5:36pm 15 25 mph 1017.1mb 73f 53f
5:30pm 17 22 mph 1017mb 73f 53f
5:24pm 15 28 mph 1017mb 73f 53f
5:18pm 18 25 mph 1016.8mb 73f 53f
5:12pm 16 25 mph 1016.5mb 74f 53f
5:06pm 22 32 mph 1016.3mb 74f 53f
5:00pm 16 26 mph 1016.5mb 74f 53f
3:54pm 17 28 mph 1016.6mb 75f 54f
3:48pm 18 25 mph 1016.4mb 75f 54f
3:42pm 20 24 mph 1016.3mb 75f 54f
3:36pm 20 29 mph 1016.2mb 75f 54f
3:30pm 18 26 mph 1016.3mb 75f 54f
3:24pm 17 24 mph 1016.2mb 75f 54f
3:18pm 17 29 mph 1016.2mb 75f 54f
3:12pm 15 26 mph 1016mb 76f 54f
3:06pm 20 26 mph 1016.1mb 76f 54f
3:00pm 21 25 mph 1016.1mb 76f 54f
2:54pm 16 24 mph 1016mb 75f 54f
2:48pm 16 26 mph 1015.9mb 75f -
2:42pm 21 25 mph 1015.9mb 76f 54f
2:36pm 16 26 mph 1015.9mb 75f 54f
2:30pm 20 25 mph 1016.2mb 75f 54f
2:24pm 20 28 mph 1016.1mb 76f 54f
2:18pm 22 28 mph 1015.9mb 76f -
2:12pm 18 26 mph 1016.1mb 76f 54f
2:06pm 18 28 mph 1016.1mb 76f 55f
2:00pm 21 29 mph 1016.2mb 76f 54f
1:54pm 18 26 mph 1016.1mb 76f 54f
1:48pm 20 24 mph 1016.1mb 76f 55f
1:42pm 15 24 mph 1016.1mb 76f 55f
1:36pm 17 24 mph 1016.1mb 76f 56f
1:30pm 18 29 mph 1016.3mb 75f 55f
1:24pm 17 26 mph 1016.3mb 76f 56f
1:18pm 18 28 mph 1016.6mb 76f 55f
1:12pm 18 30 mph 1016.7mb 76f 55f
1:06pm 22 31 mph 1016.7mb 77f 55f
1:00pm 18 28 mph 1017mb 77f -
12:54pm 17 29 mph 1017.3mb 76f -
12:48pm 18 28 mph 1017.4mb 77f -
12:42pm 21 31 mph 1017.1mb 77f -
12:36pm 21 26 mph 1017.2mb 77f -
12:30pm 18 26 mph 1017.1mb 77f -
12:24pm 20 29 mph 1017mb 77f -
12:18pm 21 30 mph 1016.9mb 77f -
12:12pm 17 29 mph 1016.8mb 77f -
12:06pm 18 26 mph 1016.8mb 78f -
12:00pm 18 28 mph 1016.8mb 78f -
11:54am 21 29 mph 1016.6mb 77f -
11:48am 17 28 mph 1016.7mb 76f -
11:42am 18 29 mph 1016.8mb 76f -
11:36am 17 26 mph 1016.8mb 77f -
11:30am 18 29 mph 1016.7mb 78f -
11:24am 20 26 mph 1016.8mb 78f -
11:18am 20 29 mph 1016.8mb 78f -
11:12am 20 28 mph 1016.9mb 78f -
11:06am 17 23 mph 1016.8mb 78f -
11:00am 22 28 mph 1017mb 78f -
10:54am 18 31 mph 1016.9mb 78f -
10:48am 18 26 mph 1016.9mb 78f -
10:42am 15 25 mph 1016.4mb 78f -
10:36am 17 22 mph 1016mb 78f -
10:30am 18 26 mph 1016mb 78f -
10:24am 17 25 mph 1016.4mb 78f -
10:18am 16 29 mph 1016.4mb 79f -
10:12am 21 29 mph 1015.9mb 79f -
10:06am 20 30 mph 1015.5mb 79f -
10:00am 17 23 mph 1015.9mb 79f -
9:54am 20 31 mph 1016.1mb 80f -
9:48am 26 32 mph - - -
9:42am 23 33 mph 1015.8mb 81f -
9:36am 22 30 mph 1016.1mb 81f -
9:30am 22 33 mph 1015.6mb 81f -
9:24am 18 32 mph 1015.8mb 82f -
9:18am 22 37 mph 1015.3mb - -
9:12am 25 32 mph 1015.1mb 82f -
9:06am 24 31 mph 1014.6mb 82f -
9:00am 20 29 mph 1015mb 83f -
8:48am 5 16 mph 1013.3mb 82f 82f
8:42am 10 14 mph 1013mb 83f 83f
8:36am 7 11 mph 1012.7mb 83f 83f
8:30am 8 11 mph 1012.8mb 83f 83f
8:24am 8 10 mph 1012.8mb 83f 83f
8:18am 6 7 mph 1012.6mb 83f 83f
8:12am 6 11 mph 1012.4mb 83f 83f
8:06am 9 14 mph 1012mb 83f 82f
8:00am 9 14 mph 1011.6mb 83f 82f
7:48am 10 14 mph 1011.5mb 82f 82f
7:42am 10 14 mph 1011.7mb 82f 82f
7:36am 8 13 mph 1012mb 82f 82f
7:30am 8 10 mph 1012mb 82f 82f
7:24am 8 10 mph 1012mb 82f 82f
7:18am 8 11 mph - - -
7:12am 9 14 mph 1011.8mb 82f 82f
7:06am 10 14 mph 1011.7mb 83f 82f
7:00am 9 14 mph 1011.7mb 83f 82f
6:54am 9 11 mph 1011.7mb 83f 82f
6:48am 8 10 mph 1011.7mb 83f 82f
6:42am 7 10 mph 1011.6mb 83f 82f
6:36am 6 8 mph 1011.7mb 83f 82f
6:30am 6 9 mph 1011.6mb 83f 82f
6:24am 6 8 mph 1011.5mb 83f 82f
6:18am 7 8 mph 1011.6mb 83f 82f
6:12am 5 8 mph 1011.5mb 83f 82f
6:06am 6 9 mph 1011.5mb 83f 82f
6:00am 6 8 mph 1011.4mb 83f 82f
5:54am 6 8 mph 1011.3mb 83f 82f
5:48am 6 7 mph 1011.3mb 83f 82f
5:42am 6 9 mph 1011.3mb 83f 82f
5:36am 7 10 mph 1011.2mb 83f 82f
5:30am 7 8 mph 1011.3mb 83f 82f
5:24am 6 7 mph 1011.3mb 83f 82f
5:18am 6 7 mph 1011.3mb - -
5:12am 6 7 mph 1011.3mb 83f 82f
5:06am 6 7 mph 1011.3mb 83f 82f
5:00am 6 7 mph 1011.4mb 83f 82f
4:54am 5 7 mph 1011.4mb 83f 82f
4:48am 6 7 mph 1011.4mb 83f 82f
4:42am 6 8 mph 1011.4mb 83f 82f
4:36am 6 9 mph 1011.4mb 83f 82f
4:30am 7 9 mph 1011.4mb 83f 82f
4:24am 6 8 mph 1011.5mb 83f 82f
4:18am 7 9 mph 1011.6mb 83f 82f
4:12am 7 9 mph 1011.6mb 83f 82f
4:06am 7 9 mph 1011.7mb 83f 82f
4:00am 7 9 mph 1011.7mb 83f 82f
3:18am 7 9 mph 1012mb 83f 82f
3:12am 8 10 mph 1012mb 83f 82f
3:06am 7 10 mph 1012mb 83f 82f
3:00am 8 10 mph 1012mb 83f 82f
2:54am 8 13 mph 1012.1mb 83f 82f
2:48am 8 10 mph 1012.1mb 83f -
2:42am 9 11 mph 1012mb 83f 82f
2:36am 8 10 mph 1012.1mb 83f 82f
2:30am 8 10 mph 1012.1mb 83f 82f
2:24am 7 10 mph 1012.1mb 83f 82f
2:18am 9 11 mph 1012.1mb 83f 82f
2:12am 9 10 mph 1012.1mb 83f 82f
2:06am 8 10 mph 1012.1mb 83f 82f
2:00am 9 10 mph 1012.1mb 83f 82f
1:18am 9 11 mph 1011.8mb 83f 81f
1:12am 8 11 mph 1011.9mb 83f 81f
1:06am 8 10 mph 1011.9mb 83f 81f
1:00am 8 9 mph 1011.9mb 83f 81f
12:54am 7 9 mph 1011.9mb 83f 81f
12:48am 6 8 mph 1012mb 83f 81f
12:42am 5 7 mph 1012mb - -
12:36am 6 9 mph 1012mb - -
12:30am 6 8 mph 1012mb - -
12:24am 6 11 mph 1012mb 83f 81f
12:18am 9 11 mph 1012mb 83f 81f
12:12am 8 10 mph 1012mb 83f 81f
12:06am 9 13 mph 1012mb 83f 81f
12:00am 9 13 mph 1012mb 83f 82f
Sun 10/14 11:54pm 9 15 mph 1012mb 83f 82f
11:48pm 9 14 mph 1012mb 83f -
11:42pm 9 13 mph 1012mb 83f 81f
11:36pm 10 13 mph 1011.9mb 83f 82f
11:30pm 10 13 mph 1011.9mb 83f 82f
11:24pm 10 14 mph 1011.8mb 83f 82f
11:18pm 10 14 mph 1011.7mb 83f 82f
11:12pm 9 13 mph 1011.7mb 83f 81f
11:06pm 8 13 mph 1011.7mb 83f 81f
11:00pm 9 13 mph 1011.7mb 83f 81f
10:18pm 10 14 mph 1011.5mb - -
10:12pm 10 13 mph 1011.5mb 83f 82f
10:06pm 10 14 mph 1011.4mb 83f 82f
10:00pm 10 14 mph 1011.4mb 83f 82f
9:18pm 9 11 mph 1011mb 84f 82f
9:12pm 8 11 mph 1011mb 84f 82f
9:06pm 9 13 mph 1010.9mb 84f 82f
9:00pm 9 14 mph 1010.9mb 84f 82f
8:54pm 9 11 mph 1010.9mb 84f 82f
8:48pm 9 13 mph 1010.9mb 84f 82f
8:42pm 9 11 mph 1010.8mb 84f 82f
8:36pm 9 13 mph 1010.7mb 84f 82f
8:30pm 10 13 mph 1010.7mb 84f 82f
8:24pm 9 11 mph 1010.6mb 84f 82f
8:18pm 9 10 mph 1010.6mb 84f 82f
8:12pm 7 11 mph 1010.6mb 84f 81f
8:06pm 8 10 mph 1010.5mb 84f 81f
8:00pm 8 10 mph 1010.5mb 84f 81f
7:54pm 8 10 mph 1010.4mb 84f 82f
7:48pm 7 9 mph 1010.4mb 84f 82f
7:42pm 8 11 mph 1010.4mb 84f 82f
7:36pm 8 11 mph 1010.4mb 84f 82f
7:30pm 7 10 mph 1010.4mb 84f 82f
7:24pm 7 10 mph 1010.4mb 84f 82f
7:18pm 8 10 mph 1010.3mb 84f 82f
7:12pm 7 10 mph 1010.2mb 84f 82f
7:06pm 9 11 mph 1010.1mb 84f 83f
7:00pm 8 13 mph 1010.1mb 84f 83f
6:54pm 8 15 mph 1010.1mb 84f 83f
6:48pm 9 14 mph 1010mb 84f 83f
6:42pm 8 11 mph 1010mb 84f 83f
6:36pm 9 14 mph 1010mb 84f 83f
6:30pm 14 16 mph 1009.9mb 84f 83f
6:24pm 14 16 mph 1009.9mb 84f 84f
6:18pm 11 14 mph 1009.9mb 84f 84f
6:12pm 11 15 mph 1009.9mb 84f 84f
6:06pm 11 16 mph 1009.8mb 84f 84f
6:00pm 13 15 mph 1009.8mb 84f 84f
5:54pm 11 15 mph 1009.9mb 84f 84f
5:48pm 10 15 mph 1009.8mb 84f 84f
5:42pm 11 16 mph 1009.8mb 84f 84f
5:36pm 11 16 mph 1009.8mb 84f 84f
5:30pm 11 17 mph 1009.8mb 84f 85f
5:24pm 10 14 mph 1009.8mb 84f 85f
5:18pm 13 17 mph 1009.7mb 85f 84f
5:12pm 13 15 mph 1009.8mb 84f 85f
5:06pm 11 16 mph 1009.7mb 84f 84f
5:00pm 13 16 mph 1009.7mb 84f 85f
4:54pm 14 17 mph 1009.7mb 84f 85f
4:48pm 13 15 mph 1009.6mb 84f 85f
4:42pm 14 17 mph 1009.6mb 84f 85f
4:36pm 10 17 mph 1009.6mb 84f 85f
4:30pm 11 16 mph 1009.6mb 84f 85f
4:24pm 14 17 mph 1009.6mb 84f 85f
4:18pm 13 20 mph 1009.6mb 84f 85f
4:12pm 14 17 mph 1009.6mb 84f 85f
4:06pm 13 17 mph 1009.6mb 84f 85f
4:00pm 14 17 mph 1009.7mb 84f 84f
3:54pm 13 17 mph 1009.7mb 84f 85f
3:48pm 13 17 mph 1009.7mb 84f 84f
3:42pm 14 17 mph 1009.7mb 84f 84f
3:36pm 13 20 mph 1009.8mb 84f 84f
3:30pm 14 16 mph 1009.7mb 84f 85f
3:24pm 13 16 mph 1009.7mb 84f 84f
3:18pm 14 16 mph 1009.7mb - -
3:12pm 14 18 mph 1009.7mb 84f 84f
3:06pm 14 17 mph 1009.7mb 84f 84f
3:00pm 14 17 mph 1009.8mb 84f 84f
2:54pm 13 18 mph 1009.9mb 84f 84f
2:48pm 14 18 mph 1009.9mb 84f -
2:42pm 13 17 mph 1010mb 84f 84f
2:36pm 13 20 mph 1010.1mb 84f 84f
2:30pm 14 17 mph 1010.1mb 84f 84f
2:24pm 14 17 mph 1010.1mb 83f 84f
2:18pm 15 18 mph 1010.2mb 83f 84f
2:12pm 13 17 mph 1010.2mb 83f 84f
2:06pm 14 17 mph 1010.3mb 83f 84f
2:00pm 15 17 mph 1010.4mb 83f 84f
1:54pm 14 16 mph 1010.4mb 83f 84f
1:48pm 13 15 mph 1010.4mb 83f -
1:42pm 15 18 mph 1010.5mb 83f 84f
1:36pm 15 17 mph 1010.5mb 83f 84f
1:30pm 15 17 mph 1010.5mb 83f 84f
1:24pm 14 18 mph 1010.7mb 83f 84f
1:18pm 15 18 mph 1010.8mb 83f 84f
1:12pm 15 20 mph 1010.8mb 83f 84f
1:06pm 15 20 mph 1010.8mb 83f 84f
1:00pm 15 16 mph 1010.9mb 83f 84f
12:54pm 14 17 mph 1011mb 83f 84f
12:48pm 15 20 mph 1011mb 82f 84f
12:42pm 15 17 mph 1011.1mb 82f 84f
12:36pm 15 18 mph 1011.3mb 82f 84f
12:30pm 16 20 mph 1011.3mb 82f 84f
12:24pm 15 18 mph 1011.3mb 82f 84f
12:18pm 16 20 mph 1011.3mb 82f -
12:12pm 16 18 mph 1011.3mb 82f 84f
12:06pm 16 20 mph 1011.3mb 82f 84f
12:00pm 17 20 mph 1011.3mb 82f 84f
11:54am 16 18 mph 1011.4mb 82f 84f
11:48am 14 20 mph 1011.4mb 82f 84f
11:42am 16 18 mph 1011.3mb 82f 84f
11:36am 15 18 mph 1011.4mb 82f 84f
11:30am 15 17 mph 1011.4mb 82f 84f
11:24am 14 17 mph 1011.4mb 82f 84f
11:18am 14 16 mph 1011.4mb 82f 83f
11:12am 15 18 mph 1011.4mb 82f 84f
11:06am 15 17 mph 1011.4mb 82f 84f
11:00am 15 17 mph 1011.4mb 82f 84f
10:54am 15 20 mph 1011.4mb 82f 83f
10:48am 16 21 mph 1011.3mb 82f 83f
10:42am 14 18 mph 1011.3mb 82f 84f
10:36am 16 20 mph 1011.2mb 82f 83f
10:30am 16 18 mph 1011.2mb 82f 83f
10:24am 16 20 mph 1011.2mb 81f 83f
10:18am 16 20 mph 1011.1mb - -
10:12am 16 20 mph 1011.1mb 81f 83f
10:06am 15 20 mph 1011.2mb 81f 83f
10:00am 16 20 mph 1011.1mb 81f 83f
9:54am 15 18 mph 1011.2mb 81f 83f
9:48am 15 18 mph 1011.1mb 81f 83f
9:42am 17 20 mph 1011.1mb 81f 83f
9:36am 16 20 mph 1011.1mb 81f 83f
9:30am 16 18 mph 1011mb 81f 83f
9:24am 16 20 mph 1010.9mb 81f 83f
9:18am 15 17 mph 1010.8mb - -
9:12am 14 16 mph 1010.8mb 81f 83f
9:06am 14 16 mph 1010.7mb 81f 83f
9:00am 15 20 mph 1010.5mb 81f 83f
8:18am 14 17 mph 1010mb 81f 82f
8:12am 14 17 mph 1009.9mb 81f 82f
8:06am 14 16 mph 1009.9mb 81f 82f
8:00am 14 16 mph 1009.8mb 81f 82f
7:54am 14 17 mph 1009.8mb 81f 82f
7:48am 15 18 mph 1009.7mb 81f 82f
7:42am 13 16 mph 1009.7mb 81f 82f
7:36am 14 18 mph 1009.6mb 81f 82f
7:30am 14 17 mph 1009.6mb 81f 82f
7:24am 15 18 mph 1009.5mb 81f 82f
7:18am 15 18 mph 1009.5mb - -
7:12am 15 20 mph 1009.4mb 81f 82f
7:06am 16 20 mph 1009.3mb 81f 82f
7:00am 16 18 mph 1009.3mb 81f 82f
6:54am 15 21 mph 1009.2mb 81f 82f
6:48am 16 18 mph 1009.2mb 81f 82f
6:42am 16 20 mph 1009.2mb 81f 82f
6:36am 17 21 mph 1009.2mb 81f 82f
6:30am 16 20 mph 1009.2mb 81f 82f
6:24am 17 21 mph 1009.2mb 81f 82f
6:18am 18 21 mph 1009.2mb 82f -
6:12am 14 17 mph 1009.3mb 82f 82f
6:06am 15 20 mph 1009.3mb 82f 82f
6:00am 16 18 mph 1009.3mb 82f 82f
5:00am 13 16 mph 1009.1mb 82f 82f
3:54am 13 16 mph 1009.2mb 82f 82f
3:48am 14 17 mph - - -
3:42am 13 16 mph 1009.2mb 82f 82f
3:36am 11 15 mph 1009.1mb 82f 82f
3:30am 13 18 mph 1009.1mb 82f 82f
3:24am 14 16 mph 1009.1mb 82f 82f
3:18am 13 17 mph 1009.2mb - -
3:12am 14 16 mph 1009.2mb 82f 82f
3:06am 15 18 mph 1009.3mb 82f 83f
3:00am 15 18 mph 1009.3mb 82f 82f
2:54am 13 16 mph 1009.3mb 82f 82f
2:48am 15 18 mph 1009.3mb 82f -
2:42am 15 17 mph 1009.3mb 82f 82f
2:36am 13 16 mph 1009.2mb 82f 82f
2:30am 14 16 mph 1009.2mb 82f 82f
2:24am 14 16 mph 1009.2mb 82f 83f